sat.trackr.live / text

‹ back to catalog

STARLINK-30999

NORAD 58551 · 2023-192W

PAYLOAD ACTIVE UNKNOWN

§ Identity

Operator
Country
US
Launch date
2023-12-08
Launch site
AFWTR
Launch vehicle
Mass (kg)
RCS (m²)

Purposes: comms

External: N2YO · Heavens-Above · Gunter

§ Orbital elements

Epoch: 2026-05-25T04:05:45.786912Z

Period
94.11 min
Inclination
53.1607°
Eccentricity
0.0001575
Mean motion
15.30203845 rev/d
Perigee alt
474.1 km
Apogee alt
476.3 km
Semi-major
6,853.3 km
B*
7.8737e-6
RAAN
57.5266°
Arg perigee
94.3798°
Mean anomaly
265.7383°
Rev number
13,783

§ Raw data

STARLINK-309991 58551U 23192W   26145.17066883 -.00000126  00000+0  78737-5 0  99942 58551  53.1607  57.5266 0001575  94.3798 265.7383 15.30203845137834

JSON: /api/v1/satellites/58551 · /tle

For live sub-satellite position, see the globe view (requires WebGL).

§ Visibility from observer

Set your observer location to see the next 7 days of passes ≥ 10°. The values pass through the URL so the page stays shareable.

No JS? Fill the form by hand. The geolocation button needs JavaScript.